Location: Prairie Dale
(45.6972°N, 104.5033°W)
Time: 15:35:38
(UTC+00:00)

ESTCUBE 1 - Pass Details

Date: 03 July 2022
Orbit: 646 x 657 km, 97.9° (Epoch: 07 August)

Event Time Altitude Azimuth Distance (km) Brightness Sun altitude
Exits shadow 06:11:29 15° 237° (WSW) 1,734 ? -20.4°
Maximum altitude 06:13:22 19° 268° (W) 1,538 ? -20.5°
Drops below altitude 10° 06:16:34 10° 314° (NW) 2,057 ? -20.6°
Sets 06:19:23 0° 332° (NNW) 2,975 ? -20.7°
